DateTimeUTC,F1_A11,F1_S11,BsB_S11,BsG_S11,BsR_S11,BbsB_S11,BbsG_S11,BbsR_S11,BaB_A11,BaG_A11,BaR_A11,Tu_S11,T_S11,Uu_S11,U_S11,P_S11,T1_A11
2021-05-07T13:00:00Z,00000200,21000000,,,,,,,0000.69,0000.28,0000.28,19.1,25.3,,00.0,0673.8,31.1
2021-05-07T13:01:00Z,00000200,21000000,,,,,,,-000.34,-000.10,-000.12,19.1,25.4,,00.0,0673.8,31.1
2021-05-07T13:02:00Z,00000200,21000000,,,,,,,0000.01,0000.01,0000.35,19.1,25.4,,00.0,0673.8,31.1
2021-05-07T13:03:00Z,00000200,61000000,,,,,,,0003.60,0003.45,0002.26,19.1,25.4,,00.0,0673.8,31.1
2021-05-07T13:04:00Z,00000200,41000000,0001.34,0000.72,0000.48,0000.05,0000.18,0000.31,0003.92,0003.25,0002.64,19.2,25.3,00.2,00.2,0674.7,31.1
2021-05-07T13:05:00Z,00000200,01000000,0000.55,0000.69,0000.34,-000.84,0000.06,0000.03,0003.35,0003.08,0002.24,19.3,25.3,00.3,00.2,0674.8,31.1
2021-05-07T13:06:00Z,00000200,01000000,0001.24,0000.48,0000.33,-000.21,0000.14,0000.26,0003.53,0002.99,0002.17,19.3,25.3,00.2,00.2,0674.8,31.1
2021-05-07T13:07:00Z,00000200,01000000,0000.61,0000.68,0000.16,-000.01,0000.35,-000.19,0004.28,0003.98,0003.13,19.3,25.3,00.2,00.1,0674.8,31.1
2021-05-07T13:08:00Z,00000200,01000000,0000.61,0000.87,0000.42,0000.49,0000.18,0000.46,0005.84,0005.05,0004.14,19.4,25.3,00.3,00.2,0674.8,31.1
2021-05-07T13:09:00Z,00000200,01000000,0001.12,0000.64,0000.44,-000.56,0000.06,0000.03,0005.88,0005.60,0003.51,19.4,25.3,00.3,00.2,0674.8,31.1
2021-05-07T13:10:00Z,00000200,01000000,0001.11,0000.54,0000.12,-000.31,0000.09,-000.11,0005.03,0004.39,0003.94,19.4,25.4,00.3,00.2,0674.8,31.1
2021-05-07T13:11:00Z,00000200,01000000,0001.61,0000.76,0000.72,0000.10,0000.30,0000.11,0006.28,0005.41,0003.95,19.4,25.4,00.3,00.2,0674.8,31.1
2021-05-07T13:12:00Z,00000200,01000000,0001.81,0000.73,0000.16,-000.17,0000.24,0000.00,0007.21,0006.67,0004.90,19.4,25.4,00.3,00.2,0674.8,31.1
2021-05-07T13:13:00Z,00000200,01000000,0001.51,0000.87,0000.24,-000.30,0000.30,0000.17,0005.25,0004.81,0003.75,19.4,25.4,00.2,00.2,0674.8,31.1
2021-05-07T13:14:00Z,00000200,01000000,0000.94,0000.50,0000.42,-000.26,0000.15,-000.08,0005.74,0004.84,0003.63,19.5,25.4,00.4,00.3,0674.8,31.1
2021-05-07T13:15:00Z,00000200,01000000,0001.48,0000.70,0000.28,0000.47,0000.22,0000.08,0005.60,0005.07,0004.03,19.5,25.4,00.4,00.3,0674.8,31.1
2021-05-07T13:16:00Z,00000200,01000000,0001.24,0000.74,0000.44,-000.04,0000.27,0000.04,0005.41,0004.75,0003.45,19.5,25.4,00.4,00.3,0674.9,31.1
2021-05-07T13:17:00Z,00000200,01000000,0001.22,0000.74,0000.39,-000.10,0000.03,0000.13,0006.92,0006.38,0004.63,19.6,25.4,00.3,00.2,0674.8,31.1
2021-05-07T13:18:00Z,00000200,01000000,0000.54,0001.04,0000.21,-000.41,0000.24,0000.11,0013.54,0012.31,0009.50,19.6,25.5,00.4,00.3,0674.8,31.1
2021-05-07T13:19:00Z,00000200,01000000,0001.47,0001.09,0000.39,0000.18,0000.38,-000.10,0017.78,0016.03,0011.91,19.6,25.5,00.5,00.4,0674.8,31.1
2021-05-07T13:20:00Z,00000200,01000000,0001.40,0000.61,0000.37,-000.22,0000.04,-000.28,0010.30,0008.97,0007.15,19.6,25.5,00.4,00.2,0674.8,31.1
2021-05-07T13:21:00Z,00000200,01000000,0001.23,0000.94,0000.47,-000.33,0000.09,0000.20,0008.89,0008.09,0005.68,19.7,25.5,00.3,00.2,0674.8,31.1
2021-05-07T13:22:00Z,00000200,01000000,0001.08,0000.76,0000.45,-000.42,0000.20,-000.01,0011.85,0010.80,0008.43,19.7,25.5,00.3,00.2,0674.8,31.1
2021-05-07T13:23:00Z,00000200,01000000,0001.55,0000.66,0000.44,0000.10,0000.43,-000.08,0009.96,0008.70,0006.58,19.7,25.6,00.3,00.2,0674.9,31.1
2021-05-07T13:24:00Z,00000200,01000000,0001.43,0000.68,0000.37,0000.07,0000.13,0000.05,0008.52,0007.95,0006.12,19.7,25.6,00.3,00.2,0674.9,31.1
2021-05-07T13:25:00Z,00000200,01000000,0001.13,0000.80,0000.07,-000.18,-000.03,-000.00,0010.35,0009.45,0006.85,19.7,25.6,00.2,00.2,0674.9,31.1
2021-05-07T13:26:00Z,00000200,01000000,0000.96,0000.88,0000.50,0000.24,0000.28,0000.18,0009.50,0008.12,0006.25,19.7,25.6,00.3,00.2,0674.9,31.1
2021-05-07T13:27:00Z,00000200,01000000,0001.71,0000.64,0000.13,0000.26,0000.19,0000.01,0009.66,0008.93,0006.62,19.8,25.6,00.2,00.2,0674.9,31.1
2021-05-07T13:28:00Z,00000200,01000000,0001.78,0000.91,0000.40,0000.02,0000.20,0000.05,0010.11,0009.20,0007.13,19.8,25.6,00.2,00.2,0674.9,31.1
2021-05-07T13:29:00Z,00000200,01000000,0000.64,0000.65,0000.12,-000.31,0000.34,-000.14,0010.15,0008.78,0007.14,19.8,25.6,00.2,00.2,0674.9,31.1
2021-05-07T13:30:00Z,00000200,01000000,0001.04,0000.71,0000.44,-000.52,0000.38,0000.16,0009.66,0008.92,0006.05,19.8,25.6,00.2,00.1,0674.9,31.1
2021-05-07T13:31:00Z,00000200,01000000,0001.41,0000.61,0000.48,0000.36,0000.29,0000.01,0009.92,0009.14,0006.98,19.8,25.6,00.2,00.1,0674.9,31.1
2021-05-07T13:32:00Z,00000200,01000000,0002.05,0001.05,0000.44,-000.29,0000.33,-000.16,0010.03,0008.64,0006.65,19.8,25.6,00.2,00.1,0674.9,31.1
2021-05-07T13:33:00Z,00000200,01000000,0001.47,0000.98,0000.30,0000.00,0000.18,0000.42,0012.14,0010.85,0008.54,19.8,25.6,00.2,00.1,0674.9,31.1
2021-05-07T13:34:00Z,00000200,01000000,0001.56,0001.04,0000.33,0000.10,0000.12,0000.06,0013.72,0012.34,0009.25,19.8,25.6,00.2,00.2,0674.9,31.1
2021-05-07T13:35:00Z,00000200,01000000,0001.34,0000.71,0000.41,0000.29,0000.23,0000.04,0012.82,0011.89,0008.74,19.8,25.6,00.3,00.2,0674.9,31.1
2021-05-07T13:36:00Z,00000200,01000000,0001.77,0001.31,0000.36,-000.27,0000.26,0000.28,0014.15,0012.29,0009.37,19.8,25.7,00.2,00.2,0674.9,31.1
2021-05-07T13:37:00Z,00000200,01000000,0000.98,0000.89,0000.41,-000.07,0000.43,-000.17,0011.68,0010.72,0008.08,19.8,25.7,00.3,00.2,0674.9,31.1
2021-05-07T13:38:00Z,00000200,01000000,0002.11,0000.94,0000.32,0000.37,0000.21,0000.05,0010.98,0009.99,0007.55,19.8,25.7,00.2,00.2,0674.9,31.1
2021-05-07T13:39:00Z,00000200,01000000,0001.85,0000.91,0000.09,0000.15,0000.19,0000.37,0010.25,0009.01,0006.58,19.8,25.7,00.3,00.2,0674.9,31.1
2021-05-07T13:40:00Z,00000200,01000000,0001.19,0000.94,0000.53,-000.16,0000.12,-000.18,0011.16,0010.37,0007.88,19.8,25.7,00.3,00.2,0674.9,31.1
2021-05-07T13:41:00Z,00000200,01000000,0001.62,0000.89,0000.61,-000.12,0000.31,0000.01,0011.96,0010.62,0008.20,19.9,25.7,00.2,00.2,0674.9,31.1
2021-05-07T13:42:00Z,00000200,01000000,0001.97,0000.95,0000.65,0000.13,0000.38,0000.20,0010.88,0009.54,0007.34,19.9,25.7,00.2,00.2,0674.9,31.1
2021-05-07T13:43:00Z,00000200,01000000,0001.89,0000.87,0000.40,0000.52,0000.26,0000.03,0012.00,0010.81,0008.30,19.9,25.7,00.2,00.2,0674.9,31.1
2021-05-07T13:44:00Z,00000200,01000000,0001.88,0000.88,0000.48,-000.26,0000.15,-000.13,0010.92,0009.98,0006.97,19.9,25.7,00.3,00.2,0674.9,31.1
2021-05-07T13:45:00Z,00000200,01000000,0001.10,0001.05,0000.43,0000.11,0000.44,0000.05,0011.04,0010.10,0007.52,19.9,25.7,00.3,00.2,0674.9,31.1
2021-05-07T13:46:00Z,00000200,01000000,0001.60,0000.94,0000.72,-000.21,0000.04,0000.22,0010.54,0008.90,0007.28,19.9,25.8,00.2,00.2,0674.9,31.1
2021-05-07T13:47:00Z,00000200,01000000,0001.33,0000.97,0000.20,-000.11,0000.20,-000.06,0011.27,0010.53,0007.65,19.9,25.8,00.3,00.2,0674.9,31.1
2021-05-07T13:48:00Z,00000200,01000000,0001.60,0001.03,0000.73,0000.33,0000.27,0000.08,0013.92,0012.47,0009.21,20.0,25.8,00.4,00.3,0674.9,31.1
2021-05-07T13:49:00Z,00000200,01000000,0000.90,0000.96,0000.51,-000.63,0000.37,0000.28,0015.86,0014.00,0011.12,20.0,25.8,00.3,00.2,0674.9,31.1
2021-05-07T13:50:00Z,00000200,01000000,0000.94,0001.28,0000.32,-000.03,0000.29,0000.50,0016.35,0014.80,0011.17,20.0,25.8,00.2,00.2,0674.9,31.1
2021-05-07T13:51:00Z,00000200,01000000,0001.91,0001.14,0000.58,-000.05,0000.28,0000.28,0017.26,0015.87,0011.76,20.0,25.8,00.3,00.2,0674.9,31.1
2021-05-07T13:52:00Z,00000200,01000000,0001.66,0001.39,0000.32,-000.50,0000.29,-000.01,0017.77,0016.01,0012.09,20.0,25.8,00.3,00.2,0674.9,31.1
2021-05-07T13:53:00Z,00000200,01000000,0001.46,0000.75,0000.34,0000.04,0000.12,-000.02,0017.54,0015.43,0012.04,20.0,25.8,00.3,00.2,0674.9,31.1
2021-05-07T13:54:00Z,00000200,01000000,0002.08,0000.83,0000.35,-000.02,0000.31,0000.03,0016.20,0014.56,0010.76,20.0,25.8,00.3,00.2,0674.9,31.1
2021-05-07T13:55:00Z,00000200,01000000,0001.86,0001.05,0000.56,-000.20,0000.22,0000.20,0014.20,0013.12,0010.18,20.0,25.8,00.3,00.2,0674.9,31.1
2021-05-07T13:56:00Z,00000200,01000000,0001.78,0001.09,0000.36,0000.42,0000.12,0000.16,0014.53,0013.13,0009.81,20.0,25.8,00.3,00.2,0674.9,31.1
2021-05-07T13:57:00Z,00000200,41000000,,,,,,,0005.06,0004.74,0003.31,20.0,25.9,00.6,00.4,0674.9,31.1
2021-05-07T13:58:00Z,00000200,61000000,,,,,,,0000.36,-000.03,0000.37,19.9,25.9,00.0,00.0,0673.9,31.2
2021-05-07T13:59:00Z,00000200,21000000,,,,,,,-000.07,-000.23,-000.02,19.9,26.0,,00.0,0673.9,31.2
